,,Stat6,,Stat2,,Stat8,,Stat9,,Stat10,,Wind1,,Wind1,
time,status,PA1M_AVG,status,PR1M_SUM,status,RH1M_AVG,status,SR1M_AVG,status,TA1M_AVG,status,W1dAve1m,status,W1sAve1m,
2008-08-16, 00:00:00,VALID,917.356,VALID,0,VALID,100,VALID,-0.0509425,VALID,19.1528,VALID,187,VALID,0,
2008-08-16, 00:01:00,VALID,917.337,VALID,0,VALID,100,VALID,-0.0339617,VALID,19.1658,VALID,187,VALID,0,
2008-08-16, 00:02:00,VALID,917.31,VALID,0,VALID,100,VALID,-0.0509425,VALID,19.1755,VALID,187,VALID,0,
2008-08-16, 00:03:00,VALID,917.286,VALID,0,VALID,100,VALID,-0.0339617,VALID,19.175,VALID,187,VALID,0,
2008-08-16, 00:04:00,VALID,917.274,VALID,0,VALID,100,VALID,-0.0339617,VALID,19.1723,VALID,199,VALID,0,
2008-08-16, 00:05:00,VALID,917.237,VALID,0,VALID,100,VALID,-0.0679233,VALID,19.1917,VALID,202,VALID,0,
2008-08-16, 00:06:00,VALID,917.229,VALID,0,VALID,100,VALID,0,VALID,19.1848,VALID,195,VALID,0,
2008-08-16, 00:07:00,VALID,917.213,VALID,0,VALID,100,VALID,-0.0339617,VALID,19.1618,VALID,193,VALID,0,
2008-08-16, 00:08:00,VALID,917.218,VALID,0,VALID,100,VALID,-0.0169808,VALID,19.1458,VALID,189,VALID,0.0372869,
2008-08-16, 00:09:00,VALID,917.22,VALID,0,VALID,100,VALID,0,VALID,19.1269,VALID,188,VALID,0.267624,
2008-08-16, 00:10:00,VALID,917.223,VALID,0,VALID,100,VALID,0,VALID,19.1102,VALID,184,VALID,0.310594,
2008-08-16, 00:11:00,VALID,917.222,VALID,0,VALID,100,VALID,0,VALID,19.1072,VALID,181,VALID,0.597266,
2008-08-16, 00:12:00,VALID,917.215,VALID,0,VALID,100,VALID,0,VALID,19.1004,VALID,188,VALID,0.10957,
2008-08-16, 00:13:00,VALID,917.213,VALID,0,VALID,100,VALID,0,VALID,19.0967,VALID,186,VALID,0.170346,
2008-08-16, 00:14:00,VALID,917.206,VALID,0,VALID,100,VALID,0,VALID,19.0872,VALID,184,VALID,0.0872713,
2008-08-16, 00:15:00,VALID,917.179,VALID,0,VALID,100,VALID,-0.0169808,VALID,19.0967,VALID,182,VALID,0.00923295,
2008-08-16, 00:16:00,VALID,917.152,VALID,0,VALID,100,VALID,-0.0169808,VALID,19.0967,VALID,184,VALID,0.164595,
2008-08-16, 00:17:00,VALID,917.103,VALID,0,VALID,100,VALID,-0.0169808,VALID,19.0972,VALID,180,VALID,0.22218,
2008-08-16, 00:18:00,VALID,917.076,VALID,0,VALID,100,VALID,0,VALID,19.0905,VALID,177,VALID,0.410823,
2008-08-16, 00:19:00,VALID,917.042,VALID,0,VALID,100,VALID,-0.0169808,VALID,19.0972,VALID,174,VALID,0.116425,
2008-08-16, 00:20:00,VALID,917.03,VALID,0,VALID,100,VALID,-0.0169808,VALID,19.0974,VALID,145,VALID,0,
2008-08-16, 00:21:00,VALID,917.02,VALID,0,VALID,100,VALID,0.0169808,VALID,19.0842,VALID,133,VALID,0,
2008-08-16, 00:22:00,VALID,917.011,VALID,0,VALID,100,VALID,0,VALID,19.0578,VALID,133,VALID,0,
2008-08-16, 00:23:00,VALID,917.008,VALID,0,VALID,100,VALID,-0.0509425,VALID,19.0423,VALID,133,VALID,0.100977,
2008-08-16, 00:24:00,VALID,917.015,VALID,0,VALID,100,VALID,0,VALID,19.0253,VALID,135,VALID,0.744606,
2008-08-16, 00:25:00,VALID,917.01,VALID,0,VALID,100,VALID,-0.0169808,VALID,19.0388,VALID,126,VALID,0.296274,
2008-08-16, 00:26:00,VALID,917.004,VALID,0,VALID,100,VALID,-0.0169808,VALID,19.0191,VALID,128,VALID,0.247768,
2008-08-16, 00:27:00,VALID,916.998,VALID,0,VALID,100,VALID,-0.0169808,VALID,19.0096,VALID,133,VALID,0.767671,
2008-08-16, 00:28:00,VALID,916.983,VALID,0,VALID,100,VALID,-0.0339617,VALID,19.0228,VALID,138,VALID,0.523619,
2008-08-16, 00:29:00,VALID,916.974,VALID,0,VALID,100,VALID,-0.0169808,VALID,19.0261,VALID,146,VALID,0.213299,
2008-08-16, 00:30:00,VALID,916.961,VALID,0,VALID,100,VALID,-0.0169808,VALID,19.0231,VALID,157,VALID,0.555035,
2008-08-16, 00:31:00,VALID,916.943,VALID,0,VALID,100,VALID,-0.0339617,VALID,19.0128,VALID,154,VALID,0.914621,
2008-08-16, 00:32:00,VALID,916.915,VALID,0,VALID,100,VALID,0,VALID,18.9969,VALID,135,VALID,1.37678,
2008-08-16, 00:33:00,VALID,916.891,VALID,0,VALID,100,VALID,-0.0169808,VALID,18.9767,VALID,129,VALID,1.57643,
2008-08-16, 00:34:00,VALID,916.867,VALID,0,VALID,100,VALID,0.0169808,VALID,18.9764,VALID,126,VALID,1.31996,
2008-08-16, 00:35:00,VALID,916.849,VALID,0,VALID,100,VALID,0,VALID,18.9605,VALID,111,VALID,1.32924,
2008-08-16, 00:36:00,VALID,916.823,VALID,0,VALID,100,VALID,0,VALID,18.9512,VALID,115,VALID,0.128906,
2008-08-16, 00:37:00,VALID,916.795,VALID,0,VALID,100,VALID,0,VALID,18.9542,VALID,132,VALID,0.497582,
2008-08-16, 00:38:00,VALID,916.75,VALID,0,VALID,100,VALID,0,VALID,18.9378,VALID,110,VALID,0.0775799,
2008-08-16, 00:39:00,VALID,916.751,VALID,0,VALID,100,VALID,0,VALID,18.9248,VALID,127,VALID,0,
2008-08-16, 00:40:00,VALID,916.74,VALID,0,VALID,100,VALID,0,VALID,18.9146,VALID,113,VALID,0,
2008-08-16, 00:41:00,VALID,916.738,VALID,0,VALID,100,VALID,-0.0339617,VALID,18.919,VALID,110,VALID,0,
2008-08-16, 00:42:00,VALID,916.747,VALID,0,VALID,100,VALID,0,VALID,18.9051,VALID,110,VALID,0,
2008-08-16, 00:43:00,VALID,916.777,VALID,0,VALID,100,VALID,0,VALID,18.9123,VALID,110,VALID,0,
2008-08-16, 00:44:00,VALID,916.783,VALID,0,VALID,100,VALID,-0.0169808,VALID,18.8986,VALID,110,VALID,0,
2008-08-16, 00:45:00,VALID,916.808,VALID,0,VALID,100,VALID,0,VALID,18.8988,VALID,111,VALID,0,
2008-08-16, 00:46:00,VALID,916.809,VALID,0,VALID,100,VALID,0,VALID,18.8861,VALID,117,VALID,0,
2008-08-16, 00:47:00,VALID,916.825,VALID,0,VALID,100,VALID,-0.0169808,VALID,18.8569,VALID,111,VALID,0,
2008-08-16, 00:48:00,VALID,916.824,VALID,0,VALID,100,VALID,-0.0169808,VALID,18.8507,VALID,103,VALID,0,
2008-08-16, 00:49:00,VALID,916.834,VALID,0,VALID,100,VALID,-0.0169808,VALID,18.8532,VALID,102,VALID,0,
2008-08-16, 00:50:00,VALID,916.809,VALID,0,VALID,100,VALID,0.0169808,VALID,18.8275,VALID,94,VALID,0,
2008-08-16, 00:51:00,VALID,916.806,VALID,0,VALID,100,VALID,0.0849042,VALID,18.8393,VALID,100,VALID,0,
2008-08-16, 00:52:00,VALID,916.82,VALID,0,VALID,100,VALID,0.0509425,VALID,18.8527,VALID,119,VALID,0,
2008-08-16, 00:53:00,VALID,916.815,VALID,0,VALID,100,VALID,0.0849042,VALID,18.8525,VALID,125,VALID,0.00273437,
2008-08-16, 00:54:00,VALID,916.802,VALID,0,VALID,100,VALID,0.0849042,VALID,18.8488,VALID,131,VALID,0.0355114,
2008-08-16, 00:55:00,VALID,916.816,VALID,0,VALID,100,VALID,0.0339617,VALID,18.8655,VALID,139,VALID,0,
2008-08-16, 00:56:00,VALID,916.817,VALID,0,VALID,100,VALID,0.101885,VALID,18.8814,VALID,136,VALID,0,
2008-08-16, 00:57:00,VALID,916.82,VALID,0,VALID,100,VALID,0.101885,VALID,18.8912,VALID,136,VALID,0,
2008-08-16, 00:58:00,VALID,916.809,VALID,0,VALID,100,VALID,0.101885,VALID,18.8782,VALID,128,VALID,0,
2008-08-16, 00:59:00,VALID,916.813,VALID,0,VALID,100,VALID,0.0339617,VALID,18.8722,VALID,119,VALID,0.0129573,
2008-08-16, 01:00:00,VALID,916.798,VALID,0,VALID,100,VALID,0.0679233,VALID,18.8625,VALID,103,VALID,0.426758,
2008-08-16, 01:01:00,VALID,916.794,VALID,0,VALID,100,VALID,0.0849042,VALID,18.8363,VALID,111,VALID,0,
2008-08-16, 01:02:00,VALID,916.776,VALID,0,VALID,100,VALID,0.0679233,VALID,18.8203,VALID,108,VALID,0,
2008-08-16, 01:03:00,VALID,916.758,VALID,0,VALID,100,VALID,0.0679233,VALID,18.8073,VALID,128,VALID,0.0397892,
2008-08-16, 01:04:00,VALID,916.75,VALID,0,VALID,100,VALID,0.0509425,VALID,18.843,VALID,137,VALID,0.590402,
2008-08-16, 01:05:00,VALID,916.74,VALID,0,VALID,100,VALID,0.0509425,VALID,18.843,VALID,134,VALID,1.15781,
2008-08-16, 01:06:00,VALID,916.724,VALID,0,VALID,100,VALID,0.0679233,VALID,18.8594,VALID,129,VALID,1.07995,
2008-08-16, 01:07:00,VALID,916.697,VALID,0,VALID,100,VALID,0.0509425,VALID,18.8652,VALID,125,VALID,0.942769,
2008-08-16, 01:08:00,VALID,916.681,VALID,0,VALID,100,VALID,0.0679233,VALID,18.8754,VALID,118,VALID,0.872222,
2008-08-16, 01:09:00,VALID,916.663,VALID,0,VALID,100,VALID,0.0339617,VALID,18.8657,VALID,103,VALID,0.958705,
2008-08-16, 01:10:00,VALID,916.662,VALID,0,VALID,100,VALID,0.0509425,VALID,18.853,VALID,89,VALID,0.711719,
2008-08-16, 01:11:00,VALID,916.655,VALID,0,VALID,100,VALID,0.0679233,VALID,18.853,VALID,97,VALID,0.271076,
2008-08-16, 01:12:00,VALID,916.655,VALID,0,VALID,100,VALID,0.0509425,VALID,18.8625,VALID,95,VALID,0,
2008-08-16, 01:13:01,VALID,916.652,VALID,0,VALID,100,VALID,0.0339617,VALID,18.856,VALID,96,VALID,0,
2008-08-16, 01:14:01,VALID,916.652,VALID,0,VALID,100,VALID,0.0169808,VALID,18.8527,VALID,108,VALID,0,
2008-08-16, 01:15:00,VALID,916.651,VALID,0,VALID,100,VALID,0.0509425,VALID,18.8657,VALID,106,VALID,0,
2008-08-16, 01:16:00,VALID,916.666,VALID,0,VALID,100,VALID,0.0509425,VALID,18.8884,VALID,118,VALID,0,
2008-08-16, 01:17:01,VALID,916.658,VALID,0,VALID,100,VALID,0.0509425,VALID,18.8919,VALID,122,VALID,0,
2008-08-16, 01:18:00,VALID,916.649,VALID,0,VALID,100,VALID,0.0509425,VALID,18.8949,VALID,124,VALID,0,
2008-08-16, 01:19:01,VALID,916.64,VALID,0,VALID,100,VALID,0.0509425,VALID,18.9041,VALID,124,VALID,0,
2008-08-16, 01:20:00,VALID,916.646,VALID,0,VALID,100,VALID,0.0169808,VALID,18.9083,VALID,125,VALID,0,
2008-08-16, 01:21:00,VALID,916.64,VALID,0,VALID,100,VALID,-0.0509425,VALID,18.9193,VALID,133,VALID,0,
2008-08-16, 01:22:00,VALID,916.641,VALID,0,VALID,100,VALID,-0.101885,VALID,18.9355,VALID,134,VALID,0,
2008-08-16, 01:23:00,VALID,916.638,VALID,0,VALID,100,VALID,-0.0339617,VALID,18.9545,VALID,140,VALID,0.299851,
2008-08-16, 01:24:00,VALID,916.62,VALID,0,VALID,100,VALID,-0.0339617,VALID,18.9644,VALID,133,VALID,0.0281613,
2008-08-16, 01:25:00,VALID,916.609,VALID,0,VALID,100,VALID,-0.0169808,VALID,18.9605,VALID,126,VALID,0,
2008-08-16, 01:26:00,VALID,916.584,VALID,0,VALID,100,VALID,-0.0509425,VALID,18.9542,VALID,120,VALID,0.00109012,
2008-08-16, 01:27:00,VALID,916.56,VALID,0,VALID,100,VALID,-0.0509425,VALID,18.9739,VALID,120,VALID,0.0446948,
2008-08-16, 01:28:00,VALID,916.525,VALID,0,VALID,100,VALID,-0.0509425,VALID,18.9996,VALID,118,VALID,0.00213068,
2008-08-16, 01:29:00,VALID,916.473,VALID,0,VALID,100,VALID,-0.0339617,VALID,19.0193,VALID,118,VALID,0,
2008-08-16, 01:30:00,VALID,916.459,VALID,0,VALID,100,VALID,-0.0509425,VALID,19.0256,VALID,118,VALID,0,
2008-08-16, 01:31:00,VALID,916.439,VALID,0,VALID,100,VALID,-0.0509425,VALID,19.0288,VALID,117,VALID,0,
2008-08-16, 01:32:01,VALID,916.425,VALID,0,VALID,100,VALID,-0.0339617,VALID,19.0256,VALID,116,VALID,0.0533203,
2008-08-16, 01:33:00,VALID,916.411,VALID,0,VALID,100,VALID,-0.0849042,VALID,19.0425,VALID,113,VALID,0.0135789,
2008-08-16, 01:34:01,VALID,916.414,VALID,0,VALID,100,VALID,-0.0849042,VALID,19.0261,VALID,107,VALID,0,
2008-08-16, 01:35:00,VALID,916.421,VALID,0,VALID,100,VALID,-0.0849042,VALID,19.0393,VALID,107,VALID,0,
2008-08-16, 01:36:00,VALID,916.42,VALID,0,VALID,100,VALID,-0.0169808,VALID,19.0388,VALID,105,VALID,0,
2008-08-16, 01:37:00,VALID,916.401,VALID,0,VALID,100,VALID,-0.0339617,VALID,19.0423,VALID,104,VALID,0,
2008-08-16, 01:38:00,VALID,916.387,VALID,0,VALID,100,VALID,-0.0339617,VALID,19.0453,VALID,110,VALID,0,
2008-08-16, 01:39:01,VALID,916.374,VALID,0,VALID,100,VALID,-0.0339617,VALID,19.042,VALID,112,VALID,0,
2008-08-16, 01:40:00,VALID,916.367,VALID,0,VALID,100,VALID,-0.0339617,VALID,19.0423,VALID,122,VALID,0,
2008-08-16, 01:41:00,VALID,916.354,VALID,0,VALID,100,VALID,-0.0509425,VALID,19.039,VALID,116,VALID,0,
2008-08-16, 01:42:00,VALID,916.35,VALID,0,VALID,100,VALID,-0.0339617,VALID,19.0388,VALID,117,VALID,0,
2008-08-16, 01:43:00,VALID,916.326,VALID,0,VALID,100,VALID,-0.0849042,VALID,19.0393,VALID,121,VALID,0,
2008-08-16, 01:44:00,VALID,916.324,VALID,0,VALID,100,VALID,-0.0509425,VALID,19.0358,VALID,129,VALID,0,
2008-08-16, 01:45:01,VALID,916.304,VALID,0,VALID,100,VALID,-0.0509425,VALID,19.0393,VALID,130,VALID,0,
2008-08-16, 01:46:00,VALID,916.311,VALID,0,VALID,100,VALID,-0.0339617,VALID,19.0221,VALID,135,VALID,0,
2008-08-16, 01:47:00,VALID,916.293,VALID,0,VALID,100,VALID,-0.0339617,VALID,19.0061,VALID,151,VALID,0,
2008-08-16, 01:48:01,VALID,916.29,VALID,0,VALID,100,VALID,-0.0169808,VALID,19.0094,VALID,151,VALID,0,
2008-08-16, 01:49:00,VALID,916.298,VALID,0,VALID,100,VALID,-0.0169808,VALID,19.0029,VALID,151,VALID,0,
2008-08-16, 01:50:01,VALID,916.295,VALID,0,VALID,100,VALID,-0.0169808,VALID,18.9864,VALID,151,VALID,0,
2008-08-16, 01:51:00,VALID,916.303,VALID,0,VALID,100,VALID,-0.0169808,VALID,18.9834,VALID,152,VALID,0,
2008-08-16, 01:52:00,VALID,916.307,VALID,0,VALID,100,VALID,-0.0339617,VALID,18.9772,VALID,151,VALID,0,
2008-08-16, 01:53:00,VALID,916.312,VALID,0,VALID,100,VALID,-0.0509425,VALID,18.9906,VALID,141,VALID,0,
2008-08-16, 01:54:00,VALID,916.325,VALID,0,VALID,100,VALID,-0.0509425,VALID,18.9804,VALID,141,VALID,0,
2008-08-16, 01:55:00,VALID,916.319,VALID,0,VALID,100,VALID,-0.0169808,VALID,18.9904,VALID,141,VALID,0,
2008-08-16, 01:56:00,VALID,916.328,VALID,0,VALID,100,VALID,-0.0509425,VALID,18.9799,VALID,141,VALID,0,
2008-08-16, 01:57:01,VALID,916.328,VALID,0,VALID,100,VALID,-0.0509425,VALID,18.9936,VALID,141,VALID,0,
2008-08-16, 01:58:00,VALID,916.317,VALID,0,VALID,100,VALID,-0.0169808,VALID,18.9892,VALID,141,VALID,0,
2008-08-16, 01:59:01,VALID,916.31,VALID,0,VALID,100,VALID,-0.0509425,VALID,19.0098,VALID,141,VALID,0,
2008-08-16, 02:00:00,VALID,916.311,VALID,0,VALID,100,VALID,0,VALID,18.9999,VALID,141,VALID,0,
2008-08-16, 02:01:01,VALID,916.316,VALID,0,VALID,100,VALID,-0.0169808,VALID,18.9969,VALID,141,VALID,0,
2008-08-16, 02:02:00,VALID,916.308,VALID,0,VALID,100,VALID,0,VALID,18.9971,VALID,141,VALID,0,
2008-08-16, 02:03:01,VALID,916.306,VALID,0,VALID,100,VALID,-0.0849042,VALID,18.9806,VALID,140,VALID,0,
2008-08-16, 02:04:01,VALID,916.29,VALID,0,VALID,100,VALID,0,VALID,18.9901,VALID,131,VALID,0,
2008-08-16, 02:05:00,VALID,916.287,VALID,0,VALID,100,VALID,-0.0339617,VALID,19.0133,VALID,117,VALID,0,
2008-08-16, 02:06:01,VALID,916.282,VALID,0,VALID,100,VALID,-0.0339617,VALID,19.0163,VALID,108,VALID,0,
2008-08-16, 02:07:01,VALID,916.291,VALID,0,VALID,100,VALID,-0.0509425,VALID,19.0423,VALID,100,VALID,0,
2008-08-16, 02:08:01,VALID,916.27,VALID,0,VALID,100,VALID,-0.0339617,VALID,19.0423,VALID,97,VALID,0.478993,
2008-08-16, 02:09:01,VALID,916.268,VALID,0,VALID,100,VALID,-0.0169808,VALID,19.0488,VALID,112,VALID,0.711115,
2008-08-16, 02:10:01,VALID,916.267,VALID,0,VALID,100,VALID,-0.0509425,VALID,19.0353,VALID,121,VALID,0.636896,
2008-08-16, 02:11:01,VALID,916.256,VALID,0,VALID,100,VALID,-0.0679233,VALID,19.0228,VALID,123,VALID,0.935122,
2008-08-16, 02:12:01,VALID,916.253,VALID,0,VALID,100,VALID,-0.0679233,VALID,19.033,VALID,133,VALID,0.755208,
2008-08-16, 02:13:01,VALID,916.255,VALID,0,VALID,100,VALID,-0.0339617,VALID,19.0295,VALID,139,VALID,0.572545,
2008-08-16, 02:14:01,VALID,916.253,VALID,0,VALID,100,VALID,-0.0339617,VALID,19.0036,VALID,144,VALID,0.973323,
2008-08-16, 02:15:00,VALID,916.265,VALID,0,VALID,100,VALID,-0.0679233,VALID,18.9869,VALID,144,VALID,0.800114,
2008-08-16, 02:16:00,VALID,916.261,VALID,0,VALID,100,VALID,-0.0169808,VALID,18.9936,VALID,138,VALID,0.552083,
2008-08-16, 02:17:00,VALID,916.288,VALID,0,VALID,100,VALID,-0.0679233,VALID,18.9934,VALID,140,VALID,0.690104,
2008-08-16, 02:18:00,VALID,916.28,VALID,0,VALID,100,VALID,-0.0509425,VALID,18.9969,VALID,148,VALID,0.318892,
2008-08-16, 02:19:00,VALID,916.281,VALID,0,VALID,100,VALID,-0.0169808,VALID,18.9929,VALID,141,VALID,0.48418,
2008-08-16, 02:20:00,VALID,916.286,VALID,0,VALID,100,VALID,-0.0509425,VALID,19.0001,VALID,121,VALID,0.567769,
2008-08-16, 02:21:00,VALID,916.275,VALID,0,VALID,100,VALID,-0.0679233,VALID,19.0036,VALID,138,VALID,0.690874,
2008-08-16, 02:22:00,VALID,916.275,VALID,0,VALID,100,VALID,-0.101885,VALID,18.9899,VALID,152,VALID,0.171494,
2008-08-16, 02:23:00,VALID,916.279,VALID,0,VALID,100,VALID,-0.0679233,VALID,19.0131,VALID,146,VALID,0.233681,
2008-08-16, 02:24:00,VALID,916.28,VALID,0,VALID,100,VALID,-0.0679233,VALID,19.0166,VALID,143,VALID,0.321615,
2008-08-16, 02:25:00,VALID,916.247,VALID,0,VALID,100,VALID,-0.0679233,VALID,19.0094,VALID,155,VALID,0.745808,
2008-08-16, 02:26:00,VALID,916.234,VALID,0,VALID,100,VALID,-0.0849042,VALID,19.0263,VALID,154,VALID,0.897693,
2008-08-16, 02:27:00,VALID,916.227,VALID,0,VALID,100,VALID,-0.0339617,VALID,19.0328,VALID,152,VALID,0.691883,
2008-08-16, 02:28:00,VALID,916.229,VALID,0,VALID,100,VALID,-0.0339617,VALID,19.0325,VALID,150,VALID,0.293155,
2008-08-16, 02:29:00,VALID,916.221,VALID,0,VALID,100,VALID,-0.0679233,VALID,19.0393,VALID,147,VALID,0.519886,
2008-08-16, 02:30:00,VALID,916.221,VALID,0,VALID,100,VALID,-0.0849042,VALID,19.039,VALID,142,VALID,0.876272,
2008-08-16, 02:31:00,VALID,916.23,VALID,0,VALID,100,VALID,-0.0509425,VALID,19.0585,VALID,141,VALID,0.679287,
2008-08-16, 02:32:00,VALID,916.214,VALID,0,VALID,100,VALID,-0.0679233,VALID,19.0555,VALID,134,VALID,0.142299,
2008-08-16, 02:33:00,VALID,916.22,VALID,0,VALID,100,VALID,-0.0849042,VALID,19.0393,VALID,134,VALID,0,
2008-08-16, 02:34:00,VALID,916.235,VALID,0,VALID,100,VALID,-0.0679233,VALID,19.0393,VALID,134,VALID,0,
2008-08-16, 02:35:00,VALID,916.253,VALID,0,VALID,100,VALID,-0.101885,VALID,19.0523,VALID,134,VALID,0,
2008-08-16, 02:36:00,VALID,916.269,VALID,0,VALID,100,VALID,-0.0679233,VALID,19.062,VALID,134,VALID,0,
2008-08-16, 02:37:00,VALID,916.288,VALID,0,VALID,100,VALID,-0.0679233,VALID,19.0682,VALID,134,VALID,0,
2008-08-16, 02:38:00,VALID,916.301,VALID,0,VALID,100,VALID,-0.0169808,VALID,19.0617,VALID,138,VALID,0.0379972,
2008-08-16, 02:39:00,VALID,916.297,VALID,0,VALID,100,VALID,0,VALID,19.0613,VALID,140,VALID,0.157703,
2008-08-16, 02:40:00,VALID,916.292,VALID,0,VALID,100,VALID,-0.0509425,VALID,19.065,VALID,148,VALID,0.664253,
2008-08-16, 02:41:00,VALID,916.3,VALID,0,VALID,100,VALID,0,VALID,19.058,VALID,126,VALID,0.695313,
2008-08-16, 02:42:00,VALID,916.288,VALID,0,VALID,100,VALID,-0.0169808,VALID,19.0483,VALID,126,VALID,1.19382,
2008-08-16, 02:43:00,VALID,916.276,VALID,0,VALID,100,VALID,-0.0169808,VALID,19.0388,VALID,125,VALID,1.11828,
2008-08-16, 02:44:00,VALID,916.276,VALID,0,VALID,100,VALID,-0.0679233,VALID,19.0393,VALID,138,VALID,1.06667,
2008-08-16, 02:45:00,VALID,916.27,VALID,0,VALID,100,VALID,-0.0339617,VALID,19.0425,VALID,134,VALID,1.03543,
2008-08-16, 02:46:00,VALID,916.262,VALID,0,VALID,100,VALID,-0.0339617,VALID,19.0288,VALID,135,VALID,1.16216,
2008-08-16, 02:47:00,VALID,916.257,VALID,0,VALID,100,VALID,-0.0169808,VALID,19.0291,VALID,135,VALID,1.11665,
2008-08-16, 02:48:00,VALID,916.27,VALID,0,VALID,100,VALID,-0.0339617,VALID,19.0226,VALID,147,VALID,1.14435,
2008-08-16, 02:49:00,VALID,916.275,VALID,0,VALID,100,VALID,-0.0169808,VALID,19.0223,VALID,148,VALID,1.12031,
2008-08-16, 02:50:00,VALID,916.271,VALID,0,VALID,100,VALID,-0.0679233,VALID,19.0356,VALID,145,VALID,1.46348,
2008-08-16, 02:51:00,VALID,916.27,VALID,0,VALID,100,VALID,0,VALID,19.0388,VALID,160,VALID,0.882813,
2008-08-16, 02:52:00,VALID,916.287,VALID,0,VALID,100,VALID,-0.0339617,VALID,19.0316,VALID,152,VALID,0.726918,
2008-08-16, 02:53:00,VALID,916.294,VALID,0,VALID,100,VALID,0,VALID,19.0351,VALID,149,VALID,0.974144,
2008-08-16, 02:54:00,VALID,916.317,VALID,0,VALID,100,VALID,-0.0169808,VALID,19.0381,VALID,146,VALID,0.620486,
2008-08-16, 02:55:00,VALID,916.312,VALID,0,VALID,100,VALID,-0.0339617,VALID,19.0448,VALID,141,VALID,0.186228,
2008-08-16, 02:56:00,VALID,916.331,VALID,0,VALID,100,VALID,-0.0509425,VALID,19.068,VALID,130,VALID,0.23316,
2008-08-16, 02:57:00,VALID,916.335,VALID,0,VALID,100,VALID,-0.0169808,VALID,19.058,VALID,120,VALID,0.0378196,
2008-08-16, 02:58:00,VALID,916.336,VALID,0,VALID,100,VALID,-0.0339617,VALID,19.071,VALID,108,VALID,0,
2008-08-16, 02:59:00,VALID,916.34,VALID,0,VALID,100,VALID,-0.0679233,VALID,19.0812,VALID,107,VALID,0.118304,
2008-08-16, 03:00:00,VALID,916.311,VALID,0,VALID,100,VALID,-0.0339617,VALID,19.1004,VALID,116,VALID,0.505814,
2008-08-16, 03:01:00,VALID,916.294,VALID,0,VALID,100,VALID,-0.0339617,VALID,19.0902,VALID,108,VALID,0.646289,
2008-08-16, 03:02:00,VALID,916.272,VALID,0,VALID,100,VALID,-0.0339617,VALID,19.0999,VALID,119,VALID,0.801448,
2008-08-16, 03:03:00,VALID,916.249,VALID,0,VALID,100,VALID,-0.0509425,VALID,19.1072,VALID,118,VALID,0.896341,
2008-08-16, 03:04:00,VALID,916.232,VALID,0,VALID,100,VALID,0,VALID,19.1104,VALID,129,VALID,0.715661,
2008-08-16, 03:05:00,VALID,916.207,VALID,0,VALID,100,VALID,-0.0509425,VALID,19.0935,VALID,123,VALID,1.12064,
2008-08-16, 03:06:00,VALID,916.187,VALID,0,VALID,100,VALID,-0.0509425,VALID,19.1064,VALID,138,VALID,0.717076,
2008-08-16, 03:07:00,VALID,916.187,VALID,0,VALID,100,VALID,-0.0339617,VALID,19.1102,VALID,161,VALID,0.0251116,
2008-08-16, 03:08:00,VALID,916.175,VALID,0,VALID,100,VALID,-0.0339617,VALID,19.1102,VALID,161,VALID,0.371003,
2008-08-16, 03:09:00,VALID,916.185,VALID,0,VALID,100,VALID,0,VALID,19.1132,VALID,165,VALID,0.602679,
2008-08-16, 03:10:00,VALID,916.172,VALID,0,VALID,100,VALID,-0.0339617,VALID,19.0932,VALID,163,VALID,0.72237,
2008-08-16, 03:11:00,VALID,916.171,VALID,0,VALID,100,VALID,-0.0339617,VALID,19.0902,VALID,165,VALID,1.06622,
2008-08-16, 03:12:00,VALID,916.166,VALID,0,VALID,100,VALID,-0.0169808,VALID,19.074,VALID,160,VALID,0.926847,
2008-08-16, 03:13:00,VALID,916.143,VALID,0,VALID,100,VALID,0,VALID,19.0613,VALID,179,VALID,0.799733,
2008-08-16, 03:14:00,VALID,916.134,VALID,0,VALID,100,VALID,0,VALID,19.045,VALID,175,VALID,0.608073,
2008-08-16, 03:15:00,VALID,916.114,VALID,0,VALID,100,VALID,0,VALID,19.0283,VALID,163,VALID,0.273242,
2008-08-16, 03:16:00,VALID,916.084,VALID,0,VALID,100,VALID,-0.0339617,VALID,19.0159,VALID,163,VALID,0,
2008-08-16, 03:17:00,VALID,916.064,VALID,0,VALID,100,VALID,-0.0339617,VALID,19.0031,VALID,143,VALID,0.494234,
2008-08-16, 03:18:00,VALID,916.045,VALID,0,VALID,100,VALID,-0.0169808,VALID,18.9804,VALID,93,VALID,0.804861,
2008-08-16, 03:19:00,VALID,916.033,VALID,0,VALID,100,VALID,-0.0169808,VALID,18.9709,VALID,81,VALID,0.747869,
2008-08-16, 03:20:00,VALID,916.012,VALID,0,VALID,100,VALID,-0.0339617,VALID,18.9742,VALID,81,VALID,0.445313,
2008-08-16, 03:21:00,VALID,916,VALID,0,VALID,100,VALID,-0.0509425,VALID,18.9737,VALID,96,VALID,0.270089,
2008-08-16, 03:22:00,VALID,915.975,VALID,0,VALID,100,VALID,0,VALID,18.9832,VALID,123,VALID,0.760938,
2008-08-16, 03:23:00,VALID,915.952,VALID,0,VALID,100,VALID,-0.0169808,VALID,18.9931,VALID,128,VALID,0.791667,
2008-08-16, 03:24:00,VALID,915.941,VALID,0,VALID,100,VALID,-0.0169808,VALID,18.9996,VALID,130,VALID,0.799409,
2008-08-16, 03:25:00,VALID,915.92,VALID,0,VALID,100,VALID,-0.0169808,VALID,18.9964,VALID,138,VALID,0.742746,
2008-08-16, 03:26:00,VALID,915.919,VALID,0,VALID,100,VALID,-0.0339617,VALID,19.0029,VALID,141,VALID,0.793968,
2008-08-16, 03:27:00,VALID,915.912,VALID,0,VALID,100,VALID,-0.0169808,VALID,18.9927,VALID,144,VALID,0.865699,
2008-08-16, 03:28:00,VALID,915.922,VALID,0,VALID,100,VALID,-0.0339617,VALID,18.9834,VALID,152,VALID,1.06213,
2008-08-16, 03:29:00,VALID,915.926,VALID,0,VALID,100,VALID,-0.0509425,VALID,18.9802,VALID,155,VALID,1.22418,
2008-08-16, 03:30:00,VALID,915.946,VALID,0,VALID,100,VALID,-0.0169808,VALID,18.9931,VALID,159,VALID,1.1981,
2008-08-16, 03:31:00,VALID,915.969,VALID,0,VALID,100,VALID,-0.0339617,VALID,18.9799,VALID,170,VALID,1.16751,
2008-08-16, 03:32:00,VALID,915.989,VALID,0,VALID,100,VALID,-0.0679233,VALID,18.967,VALID,167,VALID,0.953852,
2008-08-16, 03:33:00,VALID,916.002,VALID,0,VALID,100,VALID,-0.0169808,VALID,18.954,VALID,162,VALID,1.0333,
2008-08-16, 03:34:00,VALID,916.008,VALID,0,VALID,100,VALID,-0.0169808,VALID,18.9609,VALID,159,VALID,0.729802,
2008-08-16, 03:35:00,VALID,916.024,VALID,0,VALID,100,VALID,-0.0509425,VALID,18.9477,VALID,153,VALID,0.610647,
2008-08-16, 03:36:00,VALID,916.059,VALID,0,VALID,100,VALID,-0.0679233,VALID,18.9512,VALID,159,VALID,0.133345,
2008-08-16, 03:37:00,VALID,916.079,VALID,0,VALID,100,VALID,-0.0679233,VALID,18.9447,VALID,161,VALID,0.228646,
2008-08-16, 03:38:00,VALID,916.089,VALID,0,VALID,100,VALID,-0.0169808,VALID,18.951,VALID,156,VALID,0.139863,
2008-08-16, 03:39:00,VALID,916.107,VALID,0,VALID,100,VALID,-0.0339617,VALID,18.934,VALID,158,VALID,0.621366,
2008-08-16, 03:40:00,VALID,916.109,VALID,0,VALID,100,VALID,-0.0169808,VALID,18.9313,VALID,156,VALID,0.00186012,
2008-08-16, 03:41:00,VALID,916.103,VALID,0,VALID,100,VALID,-0.0169808,VALID,18.9146,VALID,149,VALID,0.138626,
2008-08-16, 03:42:00,VALID,916.105,VALID,0,VALID,100,VALID,0,VALID,18.9021,VALID,140,VALID,0.535156,
2008-08-16, 03:43:00,VALID,916.087,VALID,0,VALID,100,VALID,-0.0509425,VALID,18.9021,VALID,144,VALID,0.309411,